Theta_e
296 290 288 292 291 292 291 289 288 292 295 292 291 291 293 294 292 291 292 292 292 292 293 295 295 295 295 297 298 298 298 298 298 297 296 294 291 291 292 292 293 291 292 293
292 288 295 296 295 293 292 289 289 292 294 292 291 290 293 293 293 294 294 293 292 290 291 294 293 294 294 294 297 299 298 298 298 297 295 293 291 290 290 291 291 291 290 290
290 294 298 295 293 292 291 290 290 290 291 290 288 288 290 293 294 294 296 294 293 290 290 292 292 292 292 294 297 298 297 296 295 293 292 291 290 289 288 288 287 287 288 288
292 297 296 292 292 294 289 294 293 292 288 284 288 283 287 291 291 292 294 292 292 290 291 293 292 291 292 296 298 298 296 294 294 293 292 290 288 286 285 285 285 286 286 286
291 292 292 292 292 294 290 293 292 290 287 284 285 283 284 291 291 291 293 290 290 291 291 292 292 292 292 295 296 296 295 294 294 293 290 288 285 285 285 284 284 284 284 285
291 293 293 293 292 294 294 291 290 288 286 280 285 284 288 290 294 297 293 290 290 289 290 292 291 290 291 293 293 293 292 291 291 290 288 286 285 284 283 283 283 283 283 283
289 290 292 294 290 292 291 287 280 278 278 279 286 284 289 292 293 294 291 291 289 290 290 289 288 288 289 291 290 291 290 288 288 287 286 286 285 285 284 283 283 282 282 281
284 283 290 292 291 288 287 288 281 274 277 279 282 281 287 293 290 293 293 292 290 289 289 288 287 287 288 289 289 289 288 286 287 287 286 286 286 285 285 284 283 282 282 281
285 285 291 292 292 294 287 285 291 285 273 276 282 285 290 290 288 288 289 290 288 288 287 286 287 286 286 286 286 287 286 286 286 286 286 286 285 285 284 283 283 282 281 282
292 286 289 288 292 291 289 291 284 287 276 277 281 281 286 287 287 287 288 289 289 288 287 286 286 285 286 285 285 285 286 286 285 285 286 285 284 284 283 283 281 281 281 281
294 292 285 287 286 287 286 286 288 289 282 276 275 282 289 292 291 289 289 290 289 288 286 285 285 286 286 285 285 285 285 284 284 285 284 284 284 283 283 282 281 280 280 279
295 292 284 284 289 291 292 290 290 285 279 282 280 285 288 289 292 292 291 291 290 289 286 285 285 285 285 284 284 285 285 285 285 285 284 284 283 282 281 280 279 279 278 278
295 289 283 285 287 289 287 289 291 289 285 283 279 285 288 290 289 289 289 290 290 288 286 285 284 284 284 284 284 284 284 284 284 284 283 282 282 281 280 279 279 278 277 276
298 290 287 284 286 286 282 286 290 290 285 282 286 287 287 286 287 287 288 289 289 288 286 284 284 284 284 284 284 284 284 284 284 283 283 282 281 281 280 279 278 277 277 276
296 287 289 289 291 291 286 284 287 287 288 285 289 288 292 290 289 291 291 288 288 287 286 285 284 284 283 283 284 284 284 284 284 283 282 281 281 280 279 278 278 277 277 276
293 287 287 287 289 290 288 289 290 287 288 289 289 288 292 294 291 289 290 289 289 288 287 286 286 284 283 284 284 284 284 284 284 283 282 282 281 280 279 278 277 277 276 276
288 287 284 283 286 287 282 287 288 290 291 289 285 290 292 293 294 291 290 290 290 290 289 287 286 285 284 284 284 284 284 284 283 283 282 282 281 280 278 277 276 275 275 275
285 285 285 283 284 278 286 285 292 291 292 294 292 292 288 291 293 291 292 291 291 291 290 289 288 287 285 285 285 284 283 283 283 283 283 282 280 279 277 276 275 275 274 273
289 286 283 281 280 282 284 282 285 286 287 293 293 294 296 285 285 287 289 289 290 290 290 290 290 289 286 284 284 283 283 283 283 282 282 281 280 278 276 275 274 274 273 272
284 288 284 282 279 277 281 281 284 287 279 285 291 293 286 287 286 289 287 289 290 291 291 289 288 286 286 285 284 283 282 282 282 282 282 281 279 278 276 276 274 274 273 272
278 279 280 282 279 281 284 281 283 279 281 280 283 285 286 288 290 291 289 291 291 290 290 289 287 286 286 284 283 282 281 281 283 282 280 279 279 278 277 275 273 271 270 270
279 278 278 280 279 277 280 280 283 284 282 282 284 284 285 284 285 284 284 284 285 285 285 284 282 282 281 283 283 281 280 281 280 279 278 277 277 276 274 273 270 269 268 266
280 283 280 283 282 282 280 281 283 284 284 284 285 285 287 283 281 281 281 281 281 281 281 278 279 278 276 280 282 279 279 278 277 277 276 275 273 273 272 270 267 265 264 264
279 280 280 281 280 282 281 281 283 282 282 282 282 284 284 283 281 279 279 279 279 278 278 276 278 277 276 275 278 278 277 276 276 275 272 270 270 268 268 268 267 266 264 264
279 279 276 276 278 279 282 283 286 284 281 280 280 281 283 282 279 279 278 278 279 278 277 276 277 276 276 274 274 275 275 275 274 272 270 269 269 268 265 266 266 266 265 266
278 278 278 278 281 283 282 286 284 283 281 280 279 277 279 280 279 278 277 278 277 276 275 274 273 272 272 272 271 270 272 273 271 268 268 267 266 265 265 265 262 272 271 273
Wind_Speed
3 4 9 15 10 6 4 4 5 5 3 5 10 10 12 12 7 9 10 10 11 10 8 8 7 7 7 6 7 9 11 9 8 7 8 7 7 8 9 7 10 10 9 9
2 9 14 7 9 9 8 8 11 7 5 6 8 15 9 9 14 16 19 15 13 9 9 9 8 7 5 6 7 9 9 9 5 5 6 6 7 8 8 8 10 9 9 9
9 8 8 10 6 7 7 11 6 8 2 4 5 10 10 9 12 10 14 10 12 17 14 10 10 8 8 8 9 10 8 8 8 11 10 10 10 8 8 7 8 7 9 9
10 10 4 5 7 10 12 6 6 5 2 7 4 15 7 6 10 11 16 15 15 15 10 13 11 9 9 10 10 10 11 11 11 11 10 11 9 10 4 6 7 8 8 10
8 7 7 14 8 8 5 1 5 5 5 3 2 7 2 5 9 12 18 11 14 16 16 15 13 11 8 10 11 10 11 11 12 9 10 10 12 9 7 7 10 9 8 9
4 0 5 7 2 7 7 5 7 5 3 9 8 8 23 13 18 17 6 10 14 14 15 13 12 11 10 8 9 10 10 8 10 12 12 14 17 14 11 9 8 7 6 6
1 6 4 5 5 3 5 8 2 4 1 10 7 11 21 7 6 8 13 16 14 15 16 15 16 13 11 12 10 9 10 11 11 13 13 13 15 14 14 11 9 10 6 4
8 6 16 9 14 11 8 11 8 8 6 5 1 12 9 7 7 5 10 15 15 15 15 16 16 14 13 13 12 11 11 11 11 13 13 11 11 8 9 9 8 7 7 6
7 8 4 5 5 14 6 10 7 1 2 2 7 8 9 7 2 3 9 15 18 17 16 17 14 13 11 11 12 13 11 10 12 12 12 12 9 11 10 10 9 7 7 7
4 6 3 2 4 3 8 7 4 3 5 8 6 8 13 7 10 8 11 15 15 16 17 16 15 14 12 12 10 10 11 12 10 11 11 10 10 10 11 10 10 8 7 8
4 1 0 3 6 13 4 5 5 7 6 5 4 9 7 15 10 16 14 15 18 18 17 16 14 13 12 11 12 12 11 12 12 12 10 11 10 10 9 9 9 9 8 8
7 3 5 10 4 4 4 7 10 6 7 6 2 16 0 5 9 13 14 15 15 16 16 15 16 16 16 15 13 14 13 14 13 12 12 12 11 11 10 10 8 8 9 7
9 5 2 2 1 3 9 9 17 4 2 14 7 15 4 6 3 5 11 13 14 15 15 15 15 16 17 16 16 15 15 14 13 13 14 12 12 11 11 10 10 9 9 8
12 6 9 11 4 4 7 14 19 23 13 6 26 12 3 3 1 3 6 10 14 15 16 15 16 17 16 16 17 16 15 14 14 14 14 13 13 12 11 10 10 10 8 9
12 10 13 17 7 3 3 5 16 22 33 16 29 19 12 7 8 11 12 8 12 16 18 20 19 18 18 17 16 15 15 15 14 15 14 14 12 11 11 11 10 9 8 7
6 7 9 18 17 15 14 12 11 14 23 22 26 29 6 8 2 6 10 11 15 18 20 20 18 18 19 19 18 16 16 16 16 16 15 14 13 14 13 11 11 10 8 7
9 8 8 16 8 8 10 31 25 23 18 24 26 37 7 16 14 10 11 17 19 19 19 19 19 19 17 19 18 18 17 15 16 15 15 15 15 14 13 11 11 10 10 8
9 8 5 5 6 10 7 3 24 25 28 26 23 24 8 13 13 10 9 16 18 18 16 15 15 14 14 13 14 14 15 17 17 16 16 15 15 14 13 12 11 9 9 9
10 8 4 5 9 6 4 5 8 11 14 21 21 24 21 4 2 5 2 3 7 7 7 9 12 14 13 16 16 16 16 17 17 17 17 16 15 14 13 12 12 9 8 7
1 12 9 4 6 8 5 4 3 5 7 8 15 19 9 8 7 7 4 4 7 6 6 8 8 6 13 14 15 16 16 17 18 18 17 16 15 15 15 13 12 8 7 7
5 3 14 11 4 5 6 5 2 5 8 2 3 4 8 7 5 7 8 5 5 7 10 10 11 13 14 13 16 16 15 18 14 12 13 14 14 14 12 11 7 8 7 6
10 9 5 3 5 6 7 4 10 5 1 3 3 3 4 0 3 4 5 5 6 7 6 6 6 6 6 11 14 14 15 10 10 12 12 12 12 9 9 11 7 8 8 7
3 8 7 10 8 2 6 3 3 4 5 4 4 3 5 5 5 7 5 6 4 5 5 3 6 7 3 7 11 12 9 12 12 12 12 11 9 9 9 11 10 6 6 6
3 2 3 4 3 4 7 3 5 6 3 4 3 5 6 5 5 4 4 4 5 3 5 4 7 6 5 3 6 6 11 12 13 12 11 10 10 8 7 6 8 8 8 7
3 5 5 2 3 3 6 7 6 5 4 3 4 2 5 5 3 4 5 5 6 5 3 4 6 6 7 5 6 8 10 12 10 9 9 9 8 10 8 7 8 8 5 8
6 7 6 7 9 6 6 13 7 8 7 7 6 2 2 5 7 6 6 6 6 7 5 5 4 5 6 6 6 6 8 11 11 9 8 8 8 7 6 7 3 14 12 16
Wind_Direction
217 134 204 208 196 197 200 211 247 255 251 158 218 236 230 210 216 216 220 209 192 176 161 142 132 132 128 120 122 125 126 129 128 128 116 99 100 90 81 74 70 68 72 68
89 230 225 173 205 217 234 248 262 300 199 172 251 245 242 196 217 209 209 207 187 153 157 149 143 148 162 143 131 131 130 137 141 123 117 107 111 95 91 85 73 67 68 72
184 218 201 195 215 203 220 222 239 228 223 270 297 264 241 235 217 213 224 202 183 167 162 159 154 157 154 155 146 141 137 131 117 115 113 110 106 97 97 86 78 62 76 79
232 232 195 154 213 200 243 213 214 242 275 255 155 287 229 225 229 224 220 190 177 169 161 156 157 161 169 161 153 148 140 130 132 136 131 129 123 123 101 105 102 85 73 78
232 173 192 222 209 171 235 156 201 219 227 323 207 301 260 232 244 242 224 185 170 170 161 161 161 163 165 156 158 151 147 150 150 139 127 123 114 116 117 108 103 95 81 77
217 191 156 185 99 163 152 70 36 39 66 265 181 194 275 233 238 246 169 184 170 159 157 153 148 145 157 150 149 149 148 140 134 131 133 134 134 136 130 125 113 105 98 92
256 200 183 144 100 29 124 109 315 317 316 248 204 209 253 289 229 226 189 185 170 162 157 153 155 158 161 160 154 145 141 138 136 134 134 139 140 136 134 134 129 125 117 107
174 273 173 188 185 183 193 165 163 209 210 265 344 241 253 233 296 239 175 175 160 162 160 160 161 160 162 159 155 149 148 141 141 139 138 138 136 135 133 138 134 124 125 124
187 266 51 148 150 160 198 211 176 89 75 355 223 281 292 229 237 90 145 164 171 168 165 163 160 163 160 161 160 154 147 145 146 143 140 140 136 139 136 125 121 125 124 122
239 271 51 247 90 18 154 169 143 97 216 234 267 251 234 245 224 192 181 178 175 171 167 167 166 165 166 162 154 147 150 151 144 135 137 136 132 129 132 132 133 133 121 114
169 336 127 100 209 176 142 203 197 158 167 199 285 258 224 234 196 198 192 186 178 177 173 170 166 166 164 160 161 159 151 148 146 143 137 137 135 131 127 130 132 130 122 121
191 75 224 213 241 252 248 197 187 177 218 228 142 258 58 318 198 187 192 183 179 177 174 172 168 164 168 169 166 166 162 158 156 148 144 146 140 136 135 140 137 131 132 130
158 201 187 265 262 291 213 210 210 178 81 222 176 254 -0 8 90 186 174 176 175 175 171 169 168 173 172 173 174 171 169 165 158 151 148 146 145 145 148 147 141 141 140 140
142 180 199 214 180 139 193 200 203 207 216 139 232 262 73 287 251 204 198 179 176 175 171 173 178 180 180 180 178 175 170 166 162 157 155 153 155 155 151 147 149 152 146 136
161 215 214 238 189 143 176 197 217 214 226 202 247 235 235 225 222 210 208 156 170 180 183 186 184 182 180 180 180 176 173 169 164 160 159 163 157 149 148 152 155 144 138 134
164 231 197 247 235 230 235 242 236 244 246 239 257 264 106 228 190 147 174 186 192 190 193 193 188 183 186 184 181 177 176 172 166 166 166 161 159 159 162 158 153 144 137 137
171 183 175 249 188 223 241 225 223 228 225 226 235 245 215 250 252 224 193 189 196 203 198 189 189 188 188 188 182 182 175 165 171 168 168 167 165 163 164 158 151 154 152 144
171 186 192 229 144 215 230 181 211 211 227 226 243 257 205 237 238 242 228 199 199 193 185 186 184 186 182 174 180 170 167 170 173 173 172 168 167 167 162 159 161 154 159 169
191 184 214 213 215 313 257 209 152 168 240 226 231 249 255 204 115 274 278 161 168 157 152 168 176 176 165 171 173 169 171 177 176 178 176 171 168 165 162 167 168 170 157 172
151 207 207 182 213 201 245 202 200 130 275 217 201 231 190 143 211 232 166 111 105 125 148 143 151 144 167 176 168 168 176 178 185 182 175 167 166 168 173 173 173 166 169 172
147 191 214 216 219 272 225 167 168 135 264 290 182 179 158 199 228 171 162 172 165 163 176 154 155 173 183 164 166 175 172 190 180 168 163 168 170 171 174 168 162 147 160 150
171 168 198 201 210 234 151 78 168 203 133 189 184 189 189 36 115 121 136 158 153 111 93 113 120 117 127 149 160 167 181 161 147 152 157 163 163 157 159 164 145 152 158 163
206 194 183 189 201 195 225 196 177 162 153 181 159 178 195 180 189 165 166 148 114 118 111 73 126 123 83 148 162 163 163 145 142 149 160 160 155 157 165 165 156 153 159 173
270 150 185 89 211 226 210 235 226 193 183 137 169 182 177 189 158 145 132 139 139 137 139 116 126 135 146 137 141 147 145 144 150 158 158 156 160 156 166 162 160 171 179 182
189 121 151 286 276 340 270 240 230 197 184 108 70 122 180 165 180 155 160 168 167 152 129 145 162 166 171 152 138 143 149 150 155 153 156 165 168 174 172 185 177 190 199 185
184 169 175 214 195 181 209 222 188 209 208 169 153 142 198 165 167 162 185 176 157 163 148 160 164 146 173 164 155 151 155 159 152 156 166 174 168 170 170 174 174 216 206 212